STARLINK-1078 (44936 NORAD) Tracking and Keplerian Element Data

This shows tracking and keplerian element data for the satellite.

Feedback or suggestion? Click here.




ElementValue
Catalog44936
NameSTARLINK-1078
Epoch Orbit1270
Epoch Day88.25001157
Epoch Year2020
RAAN359.2446
Inclination52.9944
Eccentricity0.0001405
Argument of Perigee77.8053
Mean Anonmoly192.2386
Mean Motion15.14667389
Decay Rate-0.00089603
L11 44936U 20001Y 20088.25001157 -.00089603 00000-0 -48303-2 0 9996
L22 44936 52.9944 359.2446 0001405 77.8053 192.2386 15.14667389 12705

Live tracking and technical data element details for STARLINK-1078 (NORAD 44936). STARLINK-1078 can be tracked NOW for your location showing map with azimuth and elevation plus other details from your city location.

Track the satellite on the map from your city or location and see movement details for azimuth, elevation, latitude, longitude, range, height, and movement on the map or in text.







IsCatalogInMostPopularTable: catalog: 44936, numindb: 20
Update: records affected: 1



GetName: 44936 STARLINK-1078

Hit Count: updated at: Sat, 28 Mar 2020 20:37:13 GMT